STARLINK-5895, 55964

Orbit data source: Space-Track

STARLINK-5895, 55964 is a payload satellite owned by SpaceX/Seattle (US) in LEO that was launched on Fri, 17 Mar 2023 UTC via an FALCON 9 launch vehicle from the Air Force Western Test Range (AFWTR). Payload-class satellites include a variety of spacecraft equipped with specific instruments for various scientific and technological missions. These include communications satellites like Starlink; space stations such as the ISS; scientific satellites like the Hubble; Earth observation satellites from companies like Planet Labs, Umbra, and HawkEye 360; GPS; miniature CubeSats for education and research; and military/defense satellites.

Loading next visibility...
Identifier
55964, 2023-037BC
Orbit
LEO
Country
Flag of USUS
Related business
Manufacturer
SpaceX/Seattle
Mission
Partially operational Commercial Communications
Bus & Motor
STARLINK, Unknown motor
Mass
305 kg wet, ~290 kg dry
Launch date (UTC)
2023-03-17 (3 years ago)
Launch vehicle
FALCON 9
Launch site
Air Force Western Test Range (AFWTR)
Object type
Payload
Rocket body
Debris
Shape & HBR
Box + 1 Pan, 10.1 m
Radar Cross Section
11.087 m², Large (>1 m²)

Expand to show TLE details & history
Last TLE update: 22 hours ago

TLE from 22 hours ago
0 STARLINK-5895
1 55964U 23037BC  25348.68580445  .00017455  00000-0  12707-2 0  9997
2 55964  69.9978 117.3944 0003230 325.2829  34.8121 15.03817813151774
Epoch: 2025-12-14T16:27Z
TLE epoch observation values (Epoch: 2025-12-14T16:27:33.504Z)
Latitude
-0.00008°
Longitude
146.9096°
Altitude
555.728 km
Speed
7.585 km/s
True Right ascension
07h 49m 34s
True Declination
0° 00' 00"
Sunlit
Object was in full shadow at epoch
Visualization orbit readout
Latitude
Unknown
Longitude
Unknown
Altitude
Unknown
Speed
Unknown
Apparent Right ascension
Unknown
Apparent Declination
Unknown
Sunlit
N/A
Visualization observer readout
Local Sidereal Time
13:18:49
Azimuth
Unknown
Elevation
Unknown
Doppler factor
Unknown
Orbital elements
Apogee altitude
555.319 km
Perigee altitude
550.842 km
Semi-major axis
6,931.217 km
Eccentricity
0.00032
Inclination
69.9978°
RAAN
117.3944°
Arg. of periapsis
325.2829°
True anomaly
34.83324°
Mean anomaly
34.8121°
Eccentric anomaly
34.82267°
Mean motion
3.76122 °/min
Orbital period
95.71 mins
BSTAR
0.0012707
Loading maneuver chart data...
Computing Atmospheric mass density...
Loading historical data...
Loading historical data...
Loading historical data...
Loading historical data...
Loading historical data...
Loading historical data...
Loading historical data...

Documentation

Showing up to 5 results
|